Location: ??
(35.5052°N, 139.7262°E)
Time: 03:36:21
(UTC+00:00)

NPP - Pass Details

Date: 20 June 2021
Orbit: 826 x 828 km, 98.7° (Epoch: 26 July)

Event Time Altitude Azimuth Distance (km) Brightness Sun altitude
Rises 16:40:57 0° 8° (N) 3,372 8.0 -24.8°
Reaches altitude 10° 16:43:20 10° 6° (N) 2,435 7.0 -24.5°
Maximum altitude 16:48:38 62° 287° (WNW) 930 3.7 -24.0°
Enters shadow 16:49:26 55° 247° (WSW) 989 3.7 -23.9°
